Cumberland, WI

11:41 AM CDT on March 27, 2017 (GMT -0500)
Cumberland Municipal

Weather History for KUBE - February, 2014

Change the Weather History Date:

Wednesday, February 26, 2014

  Actual Average (KRPD) Record (KRPD)
Temperature  
Mean Temperature -1 °F -  
Max Temperature 14 °F 28 °F 44 °F (1998)
Min Temperature -16 °F 12 °F -14 °F (2014)
Degree Days  
Heating Degree Days 66    
Moisture  
Dew Point -10 °F    
Average Humidity 68    
Maximum Humidity 85    
Minimum Humidity 55    
Precipitation  
Precipitation 0.00 in - - ()
Sea Level Pressure  
Sea Level Pressure 29.80 in    
Wind  
Wind Speed 15 mph (West)    
Max Wind Speed 30 mph    
Max Gust Speed 36 mph    
Visibility 7 miles    
Events Snow    
Averages and records for this station are not official NWS values.
T = Trace of Precipitation, MM = Missing Value Source: NWS Daily Summary

Daily Weather History Graph

Daily Weather History Graph

Search for Another Location

Airport or City:

Trip Planner

Search our weather history database for the weather conditions in past years. The results will help you decide how hot, cold, wet, or windy it might be!

Date:

Astronomy

Feb. 26, 2014 Rise Set
Actual Time 6:51 AM CST 5:50 PM CST
Civil Twilight 6:21 AM CST 6:20 PM CST
Nautical Twilight 5:47 AM CST 6:54 PM CST
Astronomical Twilight 5:13 AM CST 7:29 PM CST
Moon 4:44 AM CST (2/26) 3:00 PM CST (2/26)
Length of Visible Light 11h 58m
Length of Day
10h 59m
Waning Crescent, 10% of the Moon is Illuminated
Feb 26
Waning Crescent
Mar 1
New
Mar 8
First Quarter
Mar 16
Full
Mar 23
Last Quarter

Hourly Weather History & Observations

Time (CST) Temp. Windchill Dew Point Humidity Pressure Visibility Wind Dir Wind Speed Gust Speed Precip Events Conditions
12:10 AM -9.4 °F -26.8 °F -18.4 °F 65% 30.20 in 10.0 mi West 9.2 mph - N/A   Clear
12:35 AM -9.4 °F -29.8 °F -18.4 °F 65% 30.20 in 10.0 mi West 12.7 mph - N/A   Clear
12:55 AM -9.4 °F -30.6 °F -18.4 °F 65% 30.19 in 10.0 mi West 13.8 mph - N/A   Clear
1:15 AM -9.4 °F -31.4 °F -20.2 °F 59% 30.19 in 10.0 mi West 15.0 mph - N/A   Clear
1:35 AM -9.4 °F -30.6 °F -20.2 °F 59% 30.19 in 10.0 mi West 13.8 mph - N/A   Clear
1:55 AM -11.2 °F -32.9 °F -22.0 °F 59% 30.18 in 10.0 mi WNW 13.8 mph - N/A   Clear
2:15 AM -11.2 °F -32.1 °F -22.0 °F 59% 30.16 in 10.0 mi WNW 12.7 mph - N/A   Clear
2:35 AM -11.2 °F -30.1 °F -22.0 °F 59% 30.16 in 10.0 mi WNW 10.4 mph - N/A   Clear
2:55 AM -13.0 °F -34.3 °F -22.0 °F 64% 30.15 in 10.0 mi WNW 12.7 mph - N/A   Clear
3:15 AM -13.0 °F -30.0 °F -22.0 °F 64% 30.14 in 10.0 mi West 8.1 mph - N/A   Clear
3:35 AM -14.8 °F -30.8 °F -22.0 °F 70% 30.13 in 10.0 mi West 6.9 mph - N/A   Scattered Clouds
3:55 AM -14.8 °F -30.8 °F -23.8 °F 64% 30.11 in 10.0 mi WSW 6.9 mph - N/A   Scattered Clouds
4:15 AM -14.8 °F -33.5 °F -22.0 °F 70% 30.10 in 10.0 mi WSW 9.2 mph - N/A   Clear
4:35 AM -14.8 °F -32.2 °F -22.0 °F 70% 30.09 in 10.0 mi WSW 8.1 mph - N/A   Scattered Clouds
4:50 AM -16.6 °F -34.4 °F -23.8 °F 70% 30.08 in 10.0 mi WSW 8.1 mph - N/A   Scattered Clouds
5:15 AM -16.6 °F -37.9 °F -23.8 °F 70% 30.06 in 10.0 mi SW 11.5 mph - N/A   Scattered Clouds
5:35 AM -14.8 °F -36.6 °F -22.0 °F 70% 30.05 in 10.0 mi WSW 12.7 mph - N/A   Scattered Clouds
5:55 AM -14.8 °F -38.3 °F -20.2 °F 77% 30.02 in 10.0 mi WSW 15.0 mph - N/A   Scattered Clouds
6:15 AM -14.8 °F -37.5 °F -18.4 °F 84% 30.01 in 10.0 mi WSW 13.8 mph - N/A   Scattered Clouds
6:35 AM -14.8 °F -36.6 °F -18.4 °F 84% 29.99 in 10.0 mi WSW 12.7 mph - N/A   Overcast
6:55 AM -13.0 °F -33.4 °F -18.4 °F 77% 29.97 in 10.0 mi WSW 11.5 mph - N/A   Overcast
7:15 AM -13.0 °F -35.2 °F -18.4 °F 77% 29.95 in 10.0 mi SW 13.8 mph - N/A   Overcast
7:35 AM -11.2 °F -32.9 °F -16.6 °F 77% 29.94 in 10.0 mi WSW 13.8 mph - N/A   Overcast
7:55 AM -9.4 °F -32.1 °F -14.8 °F 77% 29.93 in 10.0 mi SW 16.1 mph - N/A   Overcast
8:15 AM -9.4 °F -29.8 °F -14.8 °F 77% 29.91 in 10.0 mi SW 12.7 mph - N/A   Overcast
8:35 AM -7.6 °F -29.1 °F -14.8 °F 71% 29.89 in 10.0 mi SW 15.0 mph - N/A   Overcast
8:55 AM -7.6 °F -29.1 °F -13.0 °F 77% 29.87 in 10.0 mi SW 15.0 mph - N/A   Overcast
9:15 AM -5.8 °F -27.5 °F -13.0 °F 71% 29.86 in 10.0 mi SW 16.1 mph 20.7 mph N/A   Overcast
9:30 AM -5.8 °F -28.2 °F -13.0 °F 71% 29.84 in 10.0 mi SW 17.3 mph 21.9 mph N/A   Overcast
9:55 AM -4.0 °F -24.5 °F -13.0 °F 65% 29.81 in 10.0 mi SW 15.0 mph 20.7 mph N/A   Overcast
10:15 AM -4.0 °F -27.0 °F -13.0 °F 65% 29.78 in 10.0 mi SW 19.6 mph 25.3 mph N/A   Mostly Cloudy
10:35 AM -2.2 °F -23.5 °F -9.4 °F 71% 29.77 in 10.0 mi SW 17.3 mph - N/A   Scattered Clouds
10:55 AM -0.4 °F -19.2 °F -9.4 °F 66% 29.75 in 10.0 mi SW 13.8 mph 20.7 mph N/A   Mostly Cloudy
11:15 AM -0.4 °F -19.2 °F -7.6 °F 72% 29.73 in 10.0 mi SSW 13.8 mph - N/A   Mostly Cloudy
11:35 AM 1.4 °F -16.9 °F -7.6 °F 66% 29.71 in 10.0 mi SSW 13.8 mph - N/A   Scattered Clouds
11:55 AM 3.2 °F -14.6 °F -5.8 °F 66% 29.68 in 10.0 mi SSW 13.8 mph - N/A   Scattered Clouds
12:15 PM 6.8 °F -13.8 °F -4.0 °F 61% 29.63 in 7.0 mi SW 21.9 mph 28.8 mph N/A   Overcast
12:35 PM 8.6 °F -10.5 °F -2.2 °F 62% 29.60 in 7.0 mi SW 19.6 mph 28.8 mph N/A   Mostly Cloudy
12:55 PM 8.6 °F -11.9 °F -2.2 °F 62% 29.59 in 7.0 mi SW 23.0 mph 28.8 mph N/A   Scattered Clouds
1:15 PM 10.4 °F -8.2 °F -0.4 °F 62% 29.57 in 7.0 mi SW 19.6 mph 29.9 mph N/A   Scattered Clouds
1:35 PM 10.4 °F -9.1 °F -0.4 °F 62% 29.56 in 7.0 mi WSW 21.9 mph 31.1 mph N/A   Mostly Cloudy
1:55 PM 12.2 °F -6.3 °F 1.4 °F 62% 29.54 in 7.0 mi WSW 20.7 mph 27.6 mph N/A   Mostly Cloudy
2:15 PM 12.2 °F -7.1 °F 1.4 °F 62% 29.53 in 10.0 mi West 23.0 mph 28.8 mph N/A   Overcast
2:35 PM 12.2 °F -7.1 °F 1.4 °F 62% 29.53 in 7.0 mi West 23.0 mph 31.1 mph N/A   Overcast
2:55 PM 12.2 °F -8.2 °F 3.2 °F 67% 29.52 in 10.0 mi West 26.5 mph 34.5 mph N/A   Overcast
3:15 PM 14.0 °F -4.3 °F 3.2 °F 62% 29.51 in 5.0 mi West 21.9 mph - N/A   Haze
3:35 PM 14.0 °F -3.9 °F 5.0 °F 67% 29.51 in 7.0 mi West 20.7 mph 27.6 mph N/A   Overcast
3:55 PM 14.0 °F -3.4 °F 6.8 °F 73% 29.50 in 4.0 mi West 19.6 mph 23.0 mph N/A Snow Light Snow
4:15 PM 14.0 °F -4.3 °F 5.0 °F 67% 29.50 in 5.0 mi West 21.9 mph 26.5 mph N/A Snow Light Snow
4:35 PM 14.0 °F -6.8 °F 3.2 °F 62% 29.51 in 3.0 mi West 29.9 mph 34.5 mph N/A   Haze
4:55 PM 12.2 °F -6.7 °F 5.0 °F 73% 29.51 in 3.0 mi West 21.9 mph 29.9 mph N/A   Haze
5:15 PM 12.2 °F -7.5 °F 5.0 °F 73% 29.51 in 3.0 mi WNW 24.2 mph 35.7 mph N/A Snow Light Snow
5:35 PM 12.2 °F -5.3 °F 8.6 °F 85% 29.52 in 0.5 mi WNW 18.4 mph 29.9 mph N/A Snow Light Snow
5:55 PM 12.2 °F -5.3 °F 6.8 °F 79% 29.52 in 1.0 mi WNW 18.4 mph 26.5 mph N/A Snow Light Snow
6:15 PM 10.4 °F -9.9 °F 5.0 °F 79% 29.54 in 0.5 mi WNW 24.2 mph 32.2 mph N/A Snow Light Snow
6:35 PM 10.4 °F -8.2 °F 3.2 °F 73% 29.55 in 1.0 mi WNW 19.6 mph 32.2 mph N/A Snow Light Snow
6:55 PM 8.6 °F -10.0 °F 1.4 °F 73% 29.57 in 3.0 mi NW 18.4 mph 28.8 mph N/A Snow Light Snow
7:15 PM 8.6 °F -11.0 °F -0.4 °F 67% 29.58 in 3.0 mi WNW 20.7 mph 28.8 mph N/A   Haze
7:35 PM 8.6 °F -10.5 °F -0.4 °F 67% 29.59 in 7.0 mi NW 19.6 mph 26.5 mph N/A   Overcast
7:55 PM 6.8 °F -14.3 °F -4.0 °F 61% 29.60 in 3.0 mi NW 23.0 mph 31.1 mph N/A   Haze
8:15 PM 5.0 °F -14.2 °F -7.6 °F 56% 29.61 in 5.0 mi NW 17.3 mph 28.8 mph N/A   Haze
8:35 PM 5.0 °F -17.1 °F -7.6 °F 56% 29.63 in 5.0 mi NW 24.2 mph 31.1 mph N/A   Haze
8:55 PM 3.2 °F -18.1 °F -7.6 °F 61% 29.64 in 7.0 mi NW 20.7 mph 28.8 mph N/A   Scattered Clouds
9:15 PM 3.2 °F -17.1 °F -4.0 °F 72% 29.66 in 2.0 mi NW 18.4 mph 34.5 mph N/A Snow Light Snow
9:35 PM 3.2 °F -19.5 °F -5.8 °F 66% 29.67 in 2.0 mi NW 24.2 mph 34.5 mph N/A Snow Light Snow
9:55 PM 1.4 °F -19.9 °F -11.2 °F 56% 29.69 in 4.0 mi NW 19.6 mph 31.1 mph N/A   Haze
10:15 PM 1.4 °F -22.3 °F -9.4 °F 61% 29.71 in 3.0 mi NNW 25.3 mph 35.7 mph N/A   Haze
10:35 PM -0.4 °F -23.8 °F -7.6 °F 72% 29.72 in 2.5 mi NNW 23.0 mph 31.1 mph N/A   Haze
10:55 PM -0.4 °F -23.3 °F -7.6 °F 72% 29.74 in 2.0 mi NNW 21.9 mph 29.9 mph N/A Snow Light Snow
11:15 PM -2.2 °F -26.7 °F -13.0 °F 60% 29.75 in 4.0 mi NNW 24.2 mph 29.9 mph N/A   Haze
11:35 PM -4.0 °F -29.1 °F -14.8 °F 60% 29.77 in 4.0 mi NW 24.2 mph 32.2 mph N/A   Haze
11:55 PM -4.0 °F -26.4 °F -16.6 °F 55% 29.79 in 7.0 mi NNW 18.4 mph 27.6 mph N/A   Scattered Clouds